Theta_e
309 309 308 307 307 307 307 307 306 306 306 306 305 305 304 304 303 303 303 303 302 302 302 302 302 303 303 303 303 303 303 303 303 302 302 302 303 303 303 303 303 304 303 303 303 303 303 303 303 303 303 302 302 302 302 302 302 302 301 301 301 301 301 300 300 300 300 300 300
308 308 306 305 305 306 308 309 308 306 305 306 305 304 304 303 302 302 301 301 301 301 301 301 301 302 302 303 303 302 302 302 303 303 303 303 303 303 303 303 303 303 303 303 303 303 302 302 302 302 302 301 301 301 301 301 301 300 300 300 300 300 300 299 299 299 300 299 300
307 306 306 307 308 308 308 306 305 304 303 303 303 303 302 302 301 300 300 300 301 300 300 300 301 302 302 303 303 302 302 303 303 303 303 304 304 304 303 303 303 303 302 302 302 302 302 301 301 300 300 300 300 299 300 300 300 299 299 299 299 299 299 299 299 298 298 298 298
306 306 306 306 306 305 304 303 302 302 301 301 301 301 301 300 300 300 300 300 300 300 300 301 301 302 302 302 302 302 302 302 302 303 303 303 304 304 303 303 302 302 302 302 302 301 301 301 301 300 300 299 299 299 299 299 299 299 299 299 299 299 298 298 298 298 298 297 297
305 304 304 304 304 303 302 302 301 300 300 300 300 300 300 300 300 299 300 300 300 301 301 302 301 301 301 302 302 302 302 301 300 300 302 302 302 302 302 302 302 301 301 301 301 301 301 301 300 300 299 299 299 299 298 298 298 298 298 298 298 298 298 297 297 297 297 296 296
303 303 303 303 302 302 301 301 300 300 299 299 299 298 298 299 299 299 299 300 300 301 301 300 299 300 300 301 301 301 301 302 301 301 301 301 301 302 302 302 301 301 300 300 300 300 300 299 299 298 298 298 297 297 297 297 297 296 296 297 297 297 297 297 297 296 296 295 295
302 302 301 301 301 300 300 299 299 299 299 299 298 298 299 299 299 299 300 300 300 299 299 298 299 299 300 301 301 301 301 301 301 301 301 300 300 300 300 300 300 299 299 299 299 298 298 298 298 297 297 296 296 296 296 296 296 295 295 295 296 296 296 295 296 295 295 295 294
301 300 300 300 300 300 299 299 299 299 299 298 298 299 299 299 300 300 299 299 299 299 299 299 300 301 301 301 301 300 300 300 300 300 299 299 299 299 298 298 297 297 297 297 297 297 297 296 296 296 296 296 296 296 295 295 295 294 294 294 295 295 295 294 295 295 295 295 295
299 299 299 300 300 300 300 299 299 299 299 299 299 299 300 300 300 299 299 299 299 299 300 300 301 301 301 300 300 299 299 298 298 298 298 297 297 297 296 296 296 296 296 296 296 296 295 295 295 295 295 295 295 294 294 295 294 293 293 293 293 294 294 294 294 295 295 295 295
298 299 299 299 300 300 300 300 299 299 299 299 299 299 299 298 299 299 299 299 300 300 300 301 300 300 300 299 298 298 297 297 296 296 296 296 296 296 296 295 295 295 295 295 295 295 294 294 294 293 293 293 293 293 293 293 293 292 292 293 293 293 293 293 294 294 294 294 294
298 298 299 299 299 299 299 298 298 298 298 298 299 299 299 298 299 299 299 300 300 300 300 300 299 299 298 297 297 296 296 296 296 296 296 296 296 296 295 295 295 294 294 294 294 293 293 293 292 292 292 292 292 292 292 292 292 292 292 292 292 292 292 292 293 293 293 293 293
298 298 299 299 299 299 299 298 298 298 298 298 298 298 299 299 299 299 299 299 299 299 299 299 298 297 296 296 296 296 295 296 296 295 295 295 295 294 294 293 293 293 293 293 293 292 292 291 291 291 292 292 292 291 291 292 291 291 291 291 291 291 291 291 292 292 292 293 292
298 299 299 299 299 299 299 298 298 298 298 298 297 297 298 298 299 299 299 298 298 297 297 297 297 296 296 295 295 295 295 295 294 294 294 293 293 292 292 291 292 291 291 291 292 291 291 290 291 291 291 291 291 291 291 291 290 290 290 290 290 290 290 290 291 291 291 292 292
299 299 299 299 299 299 298 298 297 297 297 296 296 296 297 297 297 298 298 298 297 297 296 296 295 295 295 294 294 294 293 293 293 292 292 291 291 291 291 290 290 290 290 290 290 290 290 290 290 290 290 290 289 290 290 290 290 290 289 289 289 289 290 290 290 290 291 291 291
299 299 299 298 298 298 297 297 296 296 295 295 295 295 295 296 296 296 297 297 296 295 295 294 294 293 293 293 293 292 292 292 291 291 290 290 290 290 290 290 290 290 290 290 290 290 290 290 290 290 290 289 289 289 290 290 290 290 290 290 290 290 290 291 291 291 291 291 291
298 298 298 297 297 297 296 296 295 295 295 294 294 294 294 294 295 295 295 295 294 294 293 293 292 292 292 292 291 291 291 291 290 290 290 290 290 290 289 289 290 290 290 290 290 290 290 290 290 290 290 290 290 290 291 291 291 291 291 291 291 291 291 291 292 292 292 291 291
297 297 297 296 296 296 295 295 295 294 294 294 294 294 294 294 294 294 293 293 293 292 292 292 292 291 291 291 291 290 290 290 290 290 290 290 290 290 290 289 290 289 289 289 289 289 289 290 291 291 291 291 291 291 292 292 292 292 292 292 292 292 292 292 292 292 292 292 291
296 296 295 295 295 295 294 294 294 293 293 293 293 293 293 293 293 292 292 292 292 291 291 291 291 291 291 291 290 290 290 290 290 290 290 290 290 289 289 289 289 289 289 289 288 288 289 289 290 290 291 292 292 292 292 292 292 292 292 292 292 293 293 293 293 292 292 292 291
295 295 295 294 294 293 293 293 293 293 293 293 293 293 293 293 292 292 292 292 291 291 291 290 290 290 290 290 290 290 290 290 290 290 290 290 290 289 289 289 289 289 289 289 289 289 289 289 290 290 291 291 291 292 292 291 292 292 292 292 292 292 292 292 292 292 292 292 292
293 293 293 293 293 293 292 292 292 292 292 292 292 292 292 292 292 292 292 291 291 291 291 290 290 290 290 291 291 290 290 290 290 290 289 289 289 289 289 289 289 289 289 289 290 290 290 290 290 290 290 291 291 290 290 290 290 290 291 291 291 291 291 292 292 292 293 293 293
293 293 292 292 292 292 292 292 292 292 292 292 292 292 292 292 292 292 291 291 291 291 290 290 290 290 290 290 290 290 289 289 289 289 289 289 289 289 289 289 289 289 289 289 289 290 290 290 290 289 289 289 289 289 289 288 288 289 289 289 290 290 291 291 292 292 293 293 293
292 292 292 292 292 292 292 292 292 292 292 291 292 292 292 291 292 292 291 291 291 290 290 290 290 290 289 289 289 289 289 289 289 289 289 289 289 289 289 289 289 289 289 289 289 289 289 289 288 288 288 288 287 287 287 287 287 288 288 288 289 289 289 290 291 291 291 292 292
292 292 292 292 292 292 292 292 292 292 291 291 291 291 291 291 291 291 291 291 290 290 290 290 290 289 289 289 289 289 289 289 289 289 289 289 289 289 289 289 289 289 289 289 289 289 288 287 287 287 287 287 286 286 287 287 287 287 287 287 287 288 289 289 290 290 291 291 291
291 291 291 292 292 292 292 292 291 291 291 291 291 291 291 291 291 291 291 291 290 290 290 290 290 290 289 289 289 289 289 289 289 289 289 289 289 289 289 290 289 289 289 289 288 288 287 286 286 286 286 286 286 286 286 286 286 286 286 286 287 287 288 288 289 289 290 290 290
291 291 291 291 291 291 291 291 291 291 291 291 291 291 291 291 291 291 290 290 290 290 290 290 290 290 290 289 290 290 289 289 289 288 288 289 289 289 289 290 290 290 289 288 287 287 286 286 285 285 285 285 285 286 286 286 286 285 285 285 286 286 287 287 288 288 288 288 289
291 291 291 291 291 291 291 291 291 291 291 291 291 291 291 291 291 290 290 290 290 290 290 289 289 289 289 290 290 289 289 289 289 289 288 288 288 289 289 289 289 290 289 288 287 287 287 286 286 285 285 285 285 285 285 285 285 285 286 285 285 286 286 286 286 287 287 288 288
291 291 291 291 291 291 290 290 291 290 290 290 290 290 290 290 290 290 289 289 289 290 290 290 290 289 289 290 290 289 289 289 289 289 289 288 289 288 288 288 288 288 288 287 287 286 286 286 286 285 285 285 285 285 285 285 286 286 286 286 286 286 286 286 286 286 287 288 289
290 290 290 290 290 290 290 290 290 290 290 290 290 290 290 290 290 289 289 289 290 290 290 290 290 290 290 289 289 289 289 289 288 289 289 289 288 288 288 288 288 288 287 287 286 286 286 286 286 286 286 285 285 285 285 285 286 286 286 287 287 287 287 287 287 287 288 288 289
290 290 290 290 289 289 289 290 289 289 289 289 289 289 289 289 289 290 290 290 290 290 290 290 290 290 289 289 289 289 289 289 289 289 289 289 288 288 288 288 288 287 286 286 286 286 286 286 286 286 286 286 285 285 285 286 286 286 286 287 287 287 287 287 287 287 288 288 288
290 290 289 289 289 289 289 289 289 289 289 289 289 289 289 289 289 290 290 291 291 291 290 290 290 290 289 289 289 288 288 288 288 288 288 288 287 287 287 287 287 287 286 286 286 286 286 286 285 286 286 286 285 285 285 285 285 286 286 286 287 287 287 287 287 287 287 288 288
290 289 289 289 289 288 288 289 289 289 289 289 289 289 289 290 290 290 291 291 291 290 290 291 290 290 289 288 288 287 287 287 288 288 287 287 287 286 287 287 287 286 285 286 285 285 285 285 285 285 286 285 285 285 285 285 285 286 286 286 287 287 287 287 288 288 288 288 288
290 289 289 289 288 288 288 289 289 289 289 289 289 290 290 291 291 291 291 291 291 291 290 290 290 289 288 288 287 287 287 287 287 287 287 287 286 286 286 287 286 285 285 286 285 285 285 285 285 285 285 285 285 285 285 286 286 286 286 287 287 287 288 288 288 289 289 289 289
289 289 289 288 288 288 288 289 289 289 289 289 290 290 291 291 291 292 292 292 291 291 290 290 289 288 288 287 287 287 287 287 287 287 286 286 286 286 286 286 286 285 285 286 285 285 285 285 285 285 285 285 285 285 286 286 286 286 287 287 288 288 288 289 289 289 290 290 290
289 289 289 288 288 288 288 289 289 289 290 290 291 291 292 292 291 291 291 291 291 291 290 289 289 288 287 287 287 287 287 287 287 287 286 286 285 285 285 286 286 286 286 285 285 285 285 285 285 285 285 285 285 285 285 286 286 286 286 287 287 288 288 289 290 290 290 290 290
289 289 288 288 288 288 289 289 289 290 290 290 291 292 291 291 291 291 291 290 290 290 290 289 289 288 287 287 287 287 287 287 287 286 286 286 285 285 285 285 286 286 286 285 285 285 285 285 285 285 285 284 285 285 285 285 285 285 286 286 287 288 288 289 289 290 290 290 290
289 288 288 288 288 288 289 289 290 290 291 291 292 291 291 290 290 291 291 290 290 290 289 289 288 288 287 287 287 287 287 287 286 286 286 286 285 284 284 285 285 285 285 285 285 285 285 285 285 285 285 284 284 285 285 285 285 285 286 286 286 287 288 288 289 289 289 290 290
289 289 288 288 288 289 289 290 290 291 292 292 291 291 290 290 290 291 291 290 290 289 289 288 288 287 286 286 286 286 287 286 286 286 286 285 285 284 284 284 285 285 285 285 285 285 284 284 285 284 284 284 284 284 284 284 284 285 285 285 286 286 286 287 287 288 288 289 289
289 289 289 289 289 289 290 291 292 292 292 291 291 290 290 290 290 290 290 290 289 288 288 287 287 286 286 286 286 286 287 286 285 285 285 285 284 284 284 284 284 284 284 285 285 284 284 284 284 284 284 283 283 283 283 284 284 284 284 284 284 285 285 286 286 287 288 288 289
289 289 289 289 290 290 291 292 292 292 291 291 290 290 290 290 290 290 290 289 289 288 287 287 286 286 286 286 286 286 286 286 285 285 285 284 284 284 284 283 284 284 284 284 284 284 284 284 284 284 284 283 283 283 283 283 283 283 283 283 283 284 284 285 285 285 287 288 289
289 290 290 290 291 291 292 292 291 291 291 290 290 290 290 290 290 290 290 289 289 288 287 287 286 286 286 285 285 285 286 285 285 285 285 284 284 284 284 283 283 284 284 284 284 284 284 284 284 284 284 283 283 283 283 283 282 282 282 282 282 283 283 284 285 285 286 288 289
290 290 291 291 292 292 291 291 291 291 291 290 290 290 290 290 290 290 290 289 289 288 287 287 286 286 286 285 285 285 285 285 285 285 285 284 284 284 284 284 283 283 284 284 284 284 284 284 284 284 284 283 283 283 282 282 282 281 281 281 282 282 283 283 284 285 286 288 288
Wind_Speed
13 11 9 9 9 9 8 7 7 7 8 10 10 10 10 10 9 8 7 6 5 5 5 5 5 6 6 8 8 7 7 7 6 6 5 5 4 3 3 3 2 2 1 1 1 1 1 1 1 2 2 2 2 2 3 3 3 3 3 4 3 4 4 5 5 5 5 6 4
13 11 9 8 8 8 7 5 6 6 7 8 9 10 10 9 9 8 8 7 6 6 6 6 6 7 8 9 8 7 6 6 6 6 5 4 3 2 1 1 1 1 1 1 2 2 2 2 2 2 2 2 2 2 3 3 3 3 4 4 3 3 3 4 4 5 5 5 4
12 11 10 9 9 8 7 6 7 9 10 10 9 9 9 9 8 8 8 8 8 7 7 6 7 8 9 8 7 6 6 6 6 6 5 3 2 1 1 0 0 0 0 1 1 1 1 2 2 2 2 2 2 3 3 3 3 3 3 4 3 3 3 3 3 3 3 3 4
13 12 12 11 12 12 11 9 11 12 12 10 10 10 9 8 8 8 9 9 9 8 8 7 8 8 8 7 7 6 6 6 7 6 4 3 1 1 0 0 0 0 0 0 1 1 1 2 2 2 2 3 3 3 3 3 3 3 3 3 3 2 2 2 2 2 2 3 3
13 12 12 13 14 13 12 12 13 13 12 10 10 9 9 8 9 9 9 9 9 9 9 9 8 7 7 7 7 7 7 7 6 4 3 2 1 1 1 1 1 1 1 1 1 2 2 2 2 2 2 3 2 2 3 3 4 3 3 3 3 3 2 2 2 2 2 2 2
13 13 13 13 15 13 12 12 14 13 11 10 11 11 10 9 9 10 10 10 10 11 11 10 8 7 6 7 7 7 7 6 4 3 2 1 1 1 2 2 2 2 3 3 3 3 3 3 2 2 2 2 2 3 3 4 4 4 3 3 3 3 3 3 2 2 2 2 3
15 15 15 15 15 14 12 12 12 12 12 11 14 14 14 13 13 13 13 12 11 10 9 7 7 6 6 7 7 7 6 5 4 3 2 2 2 3 3 3 4 4 4 4 4 4 4 3 2 2 2 2 2 3 3 3 3 3 3 3 3 3 3 3 3 3 3 3 4
15 16 16 16 15 14 13 12 12 12 12 12 15 17 18 17 16 15 14 12 10 9 7 6 7 8 8 8 8 7 6 5 4 3 3 3 4 4 4 4 4 4 4 4 4 4 4 3 2 2 2 2 2 2 3 3 3 3 3 4 3 3 3 3 3 3 3 4 4
15 16 16 16 14 14 13 13 14 14 15 16 17 18 18 17 16 15 13 11 10 9 8 8 9 10 10 9 8 6 5 4 4 4 4 4 4 4 3 3 3 3 3 3 3 4 3 3 2 2 2 2 2 3 3 4 4 4 4 3 3 3 3 3 3 4 4 4 5
16 16 15 14 14 14 14 14 16 17 19 19 19 18 17 15 15 13 12 10 10 10 10 9 10 10 10 8 7 6 5 4 3 3 3 3 3 2 2 2 2 2 2 3 3 3 3 3 2 2 3 3 3 4 4 5 5 5 4 3 3 4 5 4 5 5 5 5 5
17 15 14 13 14 15 15 16 16 17 18 19 18 17 16 15 14 13 11 11 12 12 12 11 10 9 8 7 6 5 4 3 3 2 2 2 2 2 2 2 3 3 3 3 3 3 3 3 3 3 3 3 4 4 5 5 5 6 5 5 5 6 6 6 6 6 6 6 7
16 15 14 13 14 15 16 16 16 16 17 18 18 16 15 14 14 13 13 14 14 13 12 11 9 8 7 5 5 4 4 3 3 3 3 3 4 4 4 4 4 4 4 4 3 3 2 3 3 4 4 4 4 4 5 6 6 6 7 7 7 7 7 8 7 7 6 7 7
15 13 13 13 15 16 17 16 15 16 16 17 16 15 14 13 13 14 14 15 14 12 10 9 8 7 6 5 5 4 4 4 4 4 4 5 5 5 5 5 5 4 4 4 3 3 3 3 4 4 5 5 5 5 5 6 7 7 7 7 7 7 8 8 8 8 8 8 8
13 12 12 13 15 16 17 16 15 15 15 16 15 14 13 13 13 13 14 14 12 10 9 8 7 7 6 6 5 5 5 5 5 5 5 5 5 5 5 5 5 4 4 3 3 4 4 4 4 5 5 6 6 6 6 7 7 7 7 7 8 8 9 9 8 8 8 9 9
11 11 12 13 15 16 16 16 14 14 14 15 14 13 12 12 12 13 13 12 11 10 8 7 7 7 7 7 6 6 6 6 6 6 5 5 5 5 5 4 4 3 3 3 4 4 4 4 5 5 6 6 6 7 7 7 8 7 7 8 8 9 9 9 9 9 8 9 9
11 11 12 14 16 17 16 14 12 12 13 13 13 12 12 12 12 13 12 11 9 8 7 7 7 7 6 6 6 6 6 6 6 5 5 5 4 4 3 3 3 3 3 4 4 4 5 5 6 6 6 7 7 7 8 8 8 8 9 9 9 9 10 10 9 9 9 9 9
12 13 14 16 17 17 16 14 12 12 12 13 13 13 13 13 12 11 10 9 7 7 7 8 7 6 6 5 5 6 5 5 4 4 4 4 3 3 3 2 2 3 3 4 4 5 6 6 6 7 7 7 7 7 8 8 8 8 8 9 9 9 9 9 8 8 8 8 8
14 15 16 17 18 18 17 16 14 14 14 14 14 14 14 14 12 10 9 8 7 7 8 8 7 6 6 5 5 5 4 4 4 4 4 4 3 3 3 3 3 3 3 3 4 4 5 6 7 7 7 7 7 7 7 8 8 8 8 9 8 8 8 8 8 8 8 7 8
15 15 16 17 18 18 17 17 16 15 15 15 16 16 15 14 12 10 8 8 7 8 8 8 7 7 6 6 5 5 4 4 4 4 4 4 4 3 3 3 2 3 3 3 4 4 5 6 6 6 6 6 6 6 7 8 8 8 9 9 8 8 8 8 8 8 8 8 9
15 15 15 16 17 17 17 16 16 16 16 16 17 16 15 12 11 9 8 7 8 8 8 8 7 6 6 6 6 5 5 4 5 5 4 4 3 3 3 3 3 3 3 4 4 5 5 5 5 6 6 6 6 7 7 8 8 9 9 9 8 8 8 8 8 8 8 8 9
15 15 15 15 16 17 17 16 16 17 17 17 17 15 13 11 10 9 8 8 8 8 8 8 7 7 7 7 6 6 5 4 4 4 4 3 3 3 3 3 4 4 5 5 5 5 6 6 7 7 7 7 7 7 7 7 7 8 9 8 8 9 10 10 9 9 9 9 8
15 14 15 15 16 17 17 17 17 17 17 17 15 13 12 10 9 9 9 8 8 8 8 8 8 8 7 7 6 5 4 3 3 3 3 3 3 3 3 3 4 4 4 4 4 5 6 7 7 7 7 6 7 7 7 7 7 8 8 9 9 9 9 9 9 9 9 9 9
15 14 15 15 17 18 18 17 17 17 16 15 13 12 10 9 9 9 9 8 8 8 8 8 8 8 7 6 6 5 5 4 4 4 4 3 3 2 2 2 2 2 2 2 3 4 5 5 5 5 5 5 6 6 7 7 7 8 8 9 9 9 9 8 8 8 8 8 8
14 14 14 15 17 18 18 17 17 16 14 13 12 11 10 9 9 9 9 9 8 8 7 6 7 7 7 6 6 5 5 5 5 5 4 4 3 2 1 1 1 1 1 2 4 4 3 2 3 3 4 4 5 6 7 7 7 7 8 9 9 8 8 8 8 8 8 8 8
15 16 17 18 18 18 17 16 15 14 13 12 11 10 10 9 9 9 9 9 9 8 8 7 7 6 6 6 6 5 5 5 5 5 4 4 3 2 2 1 1 1 2 4 6 6 5 4 4 3 3 4 5 6 7 7 7 8 8 8 8 8 8 8 9 9 10 9 9
16 18 19 19 18 17 16 15 14 13 12 11 11 10 10 9 9 9 9 9 9 8 8 7 6 5 5 5 5 5 5 5 5 4 4 3 2 2 2 2 2 2 4 6 7 7 7 7 6 5 4 5 6 6 7 7 8 8 9 9 9 9 9 9 9 9 10 10 10
18 19 19 18 17 16 15 14 13 13 12 12 11 10 10 9 9 9 9 9 8 8 7 6 6 5 5 5 6 5 5 4 4 4 3 3 2 3 3 2 2 3 5 7 7 8 8 8 8 7 7 6 6 6 7 7 8 8 9 8 8 8 9 9 9 9 10 10 9
18 18 17 17 16 15 14 13 13 12 12 11 11 10 10 10 9 9 9 8 8 7 6 5 5 4 4 5 5 5 5 5 4 4 3 3 3 3 3 2 3 5 7 8 9 9 9 9 9 9 8 7 6 6 6 6 7 7 7 7 7 8 8 8 8 8 9 9 8
17 17 16 16 15 14 13 12 12 11 11 11 11 11 10 10 10 9 8 8 7 6 6 5 4 3 4 5 5 5 5 6 5 4 4 4 4 4 4 4 6 8 9 10 9 9 9 9 10 10 10 10 7 6 6 6 6 6 6 6 6 7 7 7 7 7 7 8 7
16 16 15 15 14 13 12 11 11 11 11 11 11 11 10 10 9 8 7 6 6 6 5 4 4 4 5 5 5 5 5 6 5 4 4 4 4 4 4 6 7 8 8 10 10 10 10 10 11 11 11 12 9 6 6 6 6 7 7 6 7 8 8 8 8 8 8 8 8
15 15 14 14 14 13 12 11 11 11 11 10 10 10 9 9 8 7 6 6 6 6 6 6 6 6 7 7 7 6 6 5 5 4 4 4 4 4 5 7 8 8 8 10 11 11 11 11 12 12 12 13 9 7 6 6 7 7 7 7 8 8 9 8 8 9 9 9 8
14 14 14 13 13 12 11 11 11 11 11 11 10 9 8 8 8 8 7 7 7 7 7 7 7 7 8 8 7 7 6 5 5 5 4 4 5 5 6 7 8 7 8 11 12 12 12 12 12 13 13 13 9 8 7 7 7 7 8 8 9 9 9 8 7 8 9 9 8
14 13 13 13 12 12 11 11 11 11 11 10 8 7 7 7 7 7 7 6 7 8 8 8 8 8 8 8 7 6 6 5 5 5 5 6 6 6 6 7 7 7 9 11 12 12 12 12 13 13 13 13 9 8 8 8 6 6 6 7 7 8 8 8 7 7 7 7 7
13 13 13 12 12 12 12 11 11 11 10 8 7 7 7 8 7 7 6 6 7 7 8 8 8 8 8 7 6 5 5 5 5 6 6 7 6 6 6 5 5 7 9 12 13 13 13 13 13 14 13 12 9 7 7 8 6 6 6 6 7 7 7 7 7 6 6 6 5
13 13 13 13 12 12 12 11 10 9 9 8 7 8 9 9 8 7 7 7 7 8 8 8 8 8 7 6 5 6 6 6 6 6 7 7 6 6 6 6 6 8 11 13 13 13 13 13 14 14 13 10 7 6 6 7 7 7 7 7 7 7 6 6 6 6 6 6 5
12 13 13 13 13 12 11 10 9 9 8 8 8 9 9 9 8 7 7 7 8 9 9 8 8 8 7 6 5 6 7 7 7 7 7 7 7 7 6 6 7 9 11 13 13 14 14 14 14 14 12 8 6 5 6 6 5 6 6 6 6 6 6 6 6 6 6 5 6
12 13 13 13 12 11 10 9 9 8 8 8 9 9 9 8 7 7 6 7 8 9 9 8 8 8 7 6 5 6 7 8 7 7 7 7 7 6 6 6 7 8 10 13 13 13 13 14 14 13 11 7 6 5 5 5 4 5 5 6 6 6 6 5 5 6 6 6 6
12 13 13 12 11 10 9 8 8 8 9 10 10 9 8 7 6 6 6 6 8 9 9 9 8 7 6 6 6 7 8 9 8 8 7 7 6 6 6 7 7 7 8 11 12 13 13 14 14 13 11 7 6 6 5 5 4 5 5 5 5 5 6 5 4 4 5 6 6
12 12 12 11 10 9 9 8 9 9 9 10 9 9 8 7 6 6 6 6 8 9 9 9 8 7 6 6 7 7 9 9 9 8 7 6 5 5 6 6 6 6 7 10 11 13 13 14 14 14 12 7 7 6 5 4 5 5 5 5 5 5 5 4 4 4 4 5 7
11 11 10 10 9 9 9 9 9 9 9 9 9 8 8 7 7 6 7 7 8 8 8 8 8 8 7 7 7 7 8 9 8 7 6 5 5 5 5 5 5 6 7 9 11 13 14 15 15 15 13 7 7 6 5 4 5 5 5 5 5 5 5 4 4 4 3 4 5
10 10 10 9 9 9 9 10 10 9 9 8 8 7 7 7 7 7 7 7 8 8 8 8 9 8 8 7 6 6 7 8 8 7 5 4 4 4 5 4 5 6 7 9 12 14 15 16 16 16 14 9 7 6 5 4 5 5 6 6 5 5 5 4 4 3 3 4 4
Wind_Direction
137 135 133 131 128 125 122 120 122 123 123 123 121 119 119 118 118 118 116 113 109 104 99 95 93 90 87 83 82 82 83 84 81 74 65 55 48 40 31 20 14 7 356 343 341 336 326 312 301 288 278 271 271 271 272 273 275 278 278 279 279 282 285 285 284 285 285 285 283
131 126 121 118 115 113 113 117 119 119 118 116 114 114 114 114 114 112 108 102 99 95 92 88 85 83 80 78 76 77 79 80 79 76 70 60 53 44 32 15 1 353 349 346 347 346 337 321 311 300 291 286 284 281 278 275 275 276 274 273 274 279 282 283 283 285 288 289 290
122 118 115 112 112 113 115 121 119 115 111 107 106 107 108 110 110 108 105 99 94 91 87 84 80 78 78 79 77 75 74 73 73 73 71 64 58 53 51 5 304 352 25 11 344 328 316 308 304 298 291 287 285 283 281 280 281 279 276 273 272 271 270 271 278 285 290 293 295
114 114 113 112 113 115 117 119 115 111 107 103 101 101 103 106 106 104 101 96 91 87 84 82 80 78 78 80 80 78 73 67 66 65 65 64 55 47 27 359 335 343 352 343 307 296 297 297 298 292 284 281 281 281 284 291 297 296 294 291 290 286 281 280 288 294 297 297 300
110 110 110 111 111 112 113 114 111 109 105 104 105 105 105 104 102 100 96 91 87 83 80 79 80 80 81 82 84 82 78 72 67 66 69 80 70 44 22 13 1 357 354 349 341 335 330 327 320 309 301 298 298 300 305 312 314 313 311 310 310 309 307 304 304 303 301 299 302
107 106 105 106 106 106 106 108 107 107 107 108 110 109 106 102 98 95 92 88 85 82 80 79 81 82 85 87 87 86 83 83 84 90 98 103 83 58 37 19 14 10 7 2 359 356 355 352 340 325 314 310 307 309 312 318 318 317 314 312 311 312 312 311 311 310 305 296 292
104 104 103 102 102 103 105 107 107 107 108 108 107 104 101 99 96 94 92 90 88 85 83 82 85 87 89 89 86 84 82 84 89 90 85 70 58 45 35 23 17 12 8 5 2 360 358 355 341 327 318 317 311 308 308 308 308 308 307 305 307 310 312 313 317 316 308 296 289
100 100 101 100 102 104 108 110 111 110 109 105 101 100 98 97 96 95 94 91 90 88 88 88 90 90 88 84 80 77 75 74 72 66 57 46 42 38 32 23 17 11 6 3 359 355 352 349 336 323 315 311 302 297 295 294 294 293 293 294 297 301 304 307 309 306 301 296 289
98 98 98 99 103 107 110 111 110 108 104 100 97 96 96 95 95 95 94 93 94 93 93 91 89 86 83 80 78 74 70 67 61 56 51 44 43 40 35 27 19 10 3 359 354 348 344 339 326 316 309 305 302 306 311 314 309 302 295 289 289 291 293 295 296 294 291 288 284
100 99 100 102 106 109 109 107 103 100 97 95 94 92 92 92 93 94 96 97 96 93 89 84 82 81 80 79 78 77 75 71 67 66 66 65 61 58 53 44 30 17 6 2 356 349 342 334 323 317 315 314 316 319 323 325 318 310 303 295 292 289 289 289 290 288 286 281 277
101 102 105 109 112 111 107 103 97 94 93 93 92 91 90 90 92 93 93 92 88 83 79 77 78 80 82 83 84 84 85 84 84 85 88 88 81 70 59 47 35 23 13 6 359 351 342 332 320 315 315 316 317 317 318 317 312 307 302 298 295 291 288 287 287 286 283 281 278
102 106 110 115 115 111 105 99 95 92 92 92 91 90 89 89 89 88 87 84 80 78 76 77 81 85 88 90 90 90 91 92 89 84 76 69 60 53 46 37 29 20 11 3 356 348 338 325 317 313 313 316 315 312 309 306 303 299 296 295 294 291 288 285 284 283 283 283 282
105 110 115 117 112 106 100 96 93 91 90 90 89 88 86 84 83 83 82 80 80 81 82 84 87 88 88 89 87 86 84 81 75 68 60 53 47 42 37 33 25 17 8 358 350 343 334 324 320 318 316 313 305 299 295 293 290 288 287 287 287 284 281 279 279 278 278 279 280
107 114 117 115 107 100 95 92 91 89 88 87 86 84 83 81 79 78 79 81 84 88 90 89 86 83 82 81 80 78 75 70 65 61 57 51 43 37 32 27 20 11 1 349 338 329 322 315 312 307 301 294 288 284 282 280 277 275 274 274 273 272 270 268 265 264 264 265 268
111 116 114 107 99 95 92 90 89 88 86 85 84 83 82 79 76 75 78 82 86 89 91 90 86 81 78 77 75 74 71 66 62 58 54 50 44 37 30 22 11 359 344 330 319 311 303 296 289 285 282 280 278 275 273 269 266 263 261 260 261 261 260 258 254 252 250 251 253
112 110 104 97 93 91 89 88 88 87 86 86 86 85 82 77 74 74 77 82 84 88 91 93 91 87 81 77 76 73 69 65 62 59 55 52 47 40 31 17 2 346 332 321 315 309 303 295 288 284 282 280 277 274 270 266 263 261 259 257 256 256 256 255 253 250 248 247 248
106 100 94 90 89 89 89 89 89 89 89 90 88 84 80 76 74 74 76 81 84 89 93 95 94 92 89 85 80 76 73 70 70 69 65 60 52 42 28 11 359 345 332 323 318 314 310 306 303 299 295 290 287 284 282 281 278 274 270 266 263 262 261 262 261 259 257 255 254
100 95 91 90 90 90 91 92 92 92 92 91 86 82 79 78 79 80 81 84 89 93 96 96 95 94 93 91 87 85 83 82 79 75 70 63 49 36 20 5 354 338 324 314 310 307 305 305 305 305 304 302 301 301 301 301 299 295 290 284 280 277 275 275 274 273 270 266 263
96 93 92 91 92 93 93 94 93 93 90 87 83 82 82 84 87 89 92 93 96 98 100 100 99 98 97 95 92 89 84 78 71 66 60 54 42 29 13 355 337 319 307 303 300 298 297 298 302 305 310 315 317 318 319 318 316 314 310 305 299 294 289 284 281 277 272 267 263
94 93 92 93 94 94 94 93 92 90 87 84 83 85 87 91 95 99 102 105 106 106 105 104 102 100 97 93 88 84 79 71 65 61 56 49 38 22 4 345 333 326 322 321 317 314 313 314 322 329 335 339 338 337 335 333 330 327 325 322 319 315 310 304 299 292 285 278 271
95 94 94 95 94 94 92 91 90 88 86 86 87 91 95 100 104 108 112 114 113 111 109 106 102 97 92 88 84 81 79 76 73 70 65 57 41 23 4 353 351 350 348 344 338 339 345 353 358 358 356 353 347 343 338 333 328 325 323 322 322 322 322 321 319 316 313 309 304
97 96 95 95 94 92 91 90 88 87 88 89 93 97 102 107 111 114 116 115 113 110 107 103 100 97 95 94 93 93 93 94 90 85 78 67 48 30 15 7 3 358 350 343 348 359 6 8 5 1 355 348 341 334 328 323 318 315 313 312 312 314 315 317 317 318 318 318 319
101 100 97 94 93 91 90 89 89 90 92 95 99 103 108 113 115 116 114 111 106 103 101 100 102 102 102 102 102 103 102 99 92 83 75 66 47 33 20 12 358 343 333 336 14 24 22 9 359 352 345 338 331 326 321 317 312 309 307 305 304 304 305 306 307 308 310 312 313
106 104 100 96 93 91 90 90 91 94 97 101 106 111 115 119 118 116 112 109 105 104 104 105 107 108 107 105 104 100 95 88 79 71 64 55 40 19 358 333 295 292 326 52 55 49 38 13 356 346 339 332 326 320 316 312 307 304 301 299 298 298 299 299 300 301 302 302 303
107 102 97 93 91 91 91 93 96 99 104 109 115 119 122 122 119 116 114 112 111 111 111 110 110 109 109 107 101 95 87 81 75 68 59 49 29 7 348 331 307 357 61 71 65 55 42 24 9 353 338 331 323 318 313 309 306 303 301 299 298 297 297 296 295 294 293 291 289
100 94 91 90 91 93 95 98 102 107 112 117 120 121 121 119 116 115 114 114 114 114 113 113 113 115 114 109 98 90 85 82 78 72 65 51 27 14 9 6 4 40 63 70 61 49 36 23 12 358 341 332 325 320 316 312 309 306 302 299 296 294 293 291 289 287 284 281 277
90 88 89 92 95 98 101 105 109 113 117 120 120 119 117 116 115 114 114 114 115 117 119 121 126 128 123 109 98 92 87 84 81 77 71 58 33 21 18 19 37 58 64 62 52 41 29 17 8 358 347 337 330 323 318 313 309 304 299 294 289 285 282 281 280 278 277 274 273
88 90 94 98 101 104 107 110 114 117 120 121 120 119 118 117 116 116 118 121 126 128 130 131 134 131 119 104 99 96 92 85 80 74 66 52 34 22 18 22 57 65 63 54 45 35 25 16 6 359 352 345 336 326 318 312 307 302 297 290 284 279 275 273 273 273 275 277 279
94 98 101 104 106 109 112 115 118 121 121 121 120 118 116 115 115 119 125 134 138 137 131 126 123 114 103 99 98 93 87 81 76 67 57 46 33 21 20 34 64 68 61 49 41 31 22 14 6 359 354 350 342 330 320 312 306 301 295 291 287 283 279 275 275 276 279 282 285
101 104 106 109 111 114 118 121 122 122 120 118 116 114 113 113 118 125 134 140 134 125 117 114 112 107 103 98 90 83 77 74 70 62 54 45 35 26 29 47 67 67 57 44 37 29 20 12 5 359 353 350 341 328 315 305 298 293 289 287 286 284 282 280 278 277 277 277 278
107 109 111 114 116 119 121 122 120 118 115 113 113 115 119 124 131 135 136 131 121 114 111 110 106 101 96 90 83 79 75 72 68 61 53 44 38 34 42 60 69 64 50 39 33 26 18 10 3 357 352 347 337 322 307 294 287 282 280 279 280 280 279 278 275 273 272 271 271
111 113 115 117 119 119 119 117 114 112 111 112 117 124 131 135 133 129 125 122 119 115 110 104 97 90 85 82 79 77 76 74 69 61 51 44 38 38 48 65 68 58 42 35 30 23 15 7 1 356 350 344 331 315 300 288 281 278 277 276 277 278 278 277 276 275 275 275 274
114 116 117 117 116 115 112 110 108 108 110 115 122 129 130 124 116 114 115 115 111 106 100 94 88 83 80 79 79 78 77 75 69 61 52 45 39 37 44 64 67 55 40 33 27 20 12 5 360 355 349 341 329 313 299 291 286 283 282 282 283 283 284 284 285 286 287 288 288
116 116 115 114 112 109 107 106 106 109 113 120 125 124 118 110 108 108 108 105 100 96 93 90 87 84 81 79 81 83 82 76 66 57 50 44 39 36 40 57 65 53 41 32 25 17 10 4 360 354 348 339 327 312 304 301 298 295 293 292 292 293 295 296 298 302 305 309 310
116 115 113 110 109 107 107 108 112 117 124 131 127 119 111 107 108 108 106 103 100 98 96 93 91 88 86 82 82 83 83 77 65 55 48 42 36 33 34 47 60 52 41 32 24 16 8 3 359 354 349 339 326 314 309 307 304 301 300 299 300 302 306 310 315 318 321 321 320
115 113 112 109 109 109 112 117 124 131 134 132 120 111 106 106 107 109 108 106 104 101 98 94 91 89 87 83 79 78 78 75 67 58 50 42 35 29 29 37 49 46 39 30 22 14 7 2 359 355 349 340 329 319 315 311 306 305 306 308 312 319 325 329 330 329 326 322 317
113 112 111 111 112 115 121 129 135 134 128 117 108 104 104 105 107 108 108 105 102 99 95 91 89 87 85 82 79 77 76 75 69 61 53 45 34 26 23 30 40 41 36 27 20 13 7 2 359 356 352 343 334 327 322 316 311 311 315 321 326 332 336 334 331 327 322 317 314
112 111 112 113 117 123 129 135 131 123 114 107 105 105 105 105 104 102 101 98 98 97 95 93 91 89 87 84 82 80 79 77 71 64 57 49 37 26 22 27 33 36 33 26 19 12 7 3 360 358 356 347 340 335 330 325 323 325 328 333 334 335 334 329 325 319 315 315 320
112 113 114 118 123 127 129 125 116 110 106 105 106 106 105 103 100 97 94 92 95 97 98 98 97 94 90 85 83 82 81 80 76 70 63 55 44 33 27 26 28 30 30 26 19 13 8 5 2 1 1 354 347 341 336 332 333 336 337 338 335 332 328 323 318 313 313 317 333
114 116 118 120 122 121 117 110 105 103 102 103 104 104 104 104 102 100 98 96 97 99 101 101 100 97 91 84 82 83 84 85 84 81 76 69 57 46 38 31 26 27 28 27 21 15 11 7 5 5 6 2 353 347 342 339 341 343 343 341 336 330 326 322 318 315 319 330 351
117 119 120 119 116 112 108 105 104 104 104 104 104 105 105 106 104 103 102 100 100 100 100 99 97 94 90 84 82 83 87 91 93 92 90 83 70 56 46 36 29 28 28 29 22 17 13 10 8 9 10 9 360 353 348 346 346 346 344 340 335 330 325 322 321 326 342 0 9